This is the latest recevied weather packets stored in our database for station/object KD8NVS-13. If no packets are shown the sender has not sent any weather packets the latest 10 day(s).
| Time | Temp. | Humidity | Pressure | Rain* | Wind** | Luminosity | Snow |
|---|---|---|---|---|---|---|---|
| 1778130169 | 5.56° C | 95% | 1004.2 hPa | 0 mm | - | 0 W/m² | - |
| 1778129866 | 5.56° C | 95% | 1004.5 hPa | 0 mm | - | 0 W/m² | - |
| 1778129562 | 5.56° C | 94% | 1004.5 hPa | 0 mm | - | 0 W/m² | - |
| 1778129260 | 5.56° C | 94% | 1004.2 hPa | 0 mm | - | 0 W/m² | - |
| 1778128956 | 5.56° C | 94% | 1004.2 hPa | 0 mm | - | 0 W/m² | - |
| 1778128652 | 6.11° C | 93% | 1004.5 hPa | 0 mm | - | 0 W/m² | - |
| 1778128349 | 6.11° C | 93% | 1004.5 hPa | 0 mm | - | 0 W/m² | - |
| 1778128046 | 6.11° C | 93% | 1004.2 hPa | 0 mm | - | 0 W/m² | - |
| 1778127740 | 6.11° C | 93% | 1004.9 hPa | 0 mm | - | 0 W/m² | - |
| 1778127438 | 6.11° C | 93% | 1004.5 hPa | 0 mm | - | 0 W/m² | - |
| 1778127135 | 6.11° C | 92% | 1004.2 hPa | 0 mm | - | 0 W/m² | - |
| 1778126833 | 6.67° C | 92% | 1004.5 hPa | 0 mm | - | 0 W/m² | - |
| 1778126528 | 6.11° C | 92% | 1004.5 hPa | 0 mm | - | 0 W/m² | - |
| 1778126224 | 6.67° C | 91% | 1004.2 hPa | 0 mm | - | 0 W/m² | - |
| 1778125920 | 6.67° C | 90% | 1004.5 hPa | 0 mm | - | 0 W/m² | - |
| 1778125617 | 6.67° C | 90% | 1004.5 hPa | 0 mm | - | 0 W/m² | - |
| 1778125315 | 6.67° C | 89% | 1004.5 hPa | 0 mm | - | 0 W/m² | - |
| 1778125013 | 7.22° C | 88% | 1004.5 hPa | 0 mm | - | 0 W/m² | - |
| 1778124710 | 7.22° C | 87% | 1004.5 hPa | 0 mm | - | 0 W/m² | - |
| 1778124407 | 7.22° C | 86% | 1004.9 hPa | 0 mm | - | 0 W/m² | - |
| 1778124103 | 7.78° C | 84% | 1004.5 hPa | 0 mm | - | 0 W/m² | - |
| 1778123800 | 7.78° C | 84% | 1004.5 hPa | 0 mm | - | 0 W/m² | - |
| 1778123496 | 7.78° C | 81% | 1004.9 hPa | 0 mm | - | 0 W/m² | - |
| 1778123193 | 8.33° C | 81% | 1004.5 hPa | 0 mm | - | 0 W/m² | - |
| 1778122891 | 8.33° C | 80% | 1004.9 hPa | 0 mm | - | 0 W/m² | - |
* Rain latest hour (hover to see other rain measurements)
** Current wind speed in m/s (hover to see current wind gust speed)